Weather observations for the past three days for
San Jose / Reid / Hillv
| Date | Time (pdt) | Wind (kph) | Vis. (km) | Weather | Sky Cond. | Temperature (ºC) | Relative Humidity | Wind Chill (°C) | Heat Index (°C) | Pressure | Precipitation (cm) | ||||||
|---|---|---|---|---|---|---|---|---|---|---|---|---|---|---|---|---|---|
| Air | Dwpt | 6 hour | altimeter (cm) | sea level (mb) | 1 hr | 3 hr | 6 hr | ||||||||||
| Max. | Min. | ||||||||||||||||
| 10 | 13:47 | NW 11 | 16.09 | Clear | SKC | 23 | 12 | 50% | 76.12 | 0.0 | |||||||
| 10 | 12:47 | N 11 | 16.09 | Clear | SKC | 22 | 12 | 53% | 76.17 | 0.0 | |||||||
| 10 | 11:47 | NW 6 | 16.09 | Clear | SKC | 19 | 11 | 60% | 76.23 | 0.0 | |||||||
| 10 | 10:47 | N 7 | 16.09 | Clear | SKC | 18 | 11 | 64% | 76.23 | 0.0 | |||||||
| 10 | 09:47 | NE 7 | 16.09 | Partly Cloudy | SCT015 | 16 | 11 | 72% | 76.25 | 0.0 | |||||||
| 10 | 08:47 | N 7 | 16.09 | Overcast | OVC015 | 14 | 10 | 77% | 76.25 | 0.0 | |||||||
| 10 | 07:47 | N 7 | 16.09 | Overcast | OVC011 | 13 | 10 | 82% | 76.23 | 0.0 | |||||||
| 10 | 06:55 | NW 11 | 16.09 | Overcast | OVC011 | 13 | 10 | 82% | 76.2 | 0.0 | |||||||
| 09 | 21:47 | NW 11 | 16.09 | Clear | SKC | 14 | 11 | 82% | 76.17 | 0.0 | |||||||
| 09 | 20:47 | NW 15 | 16.09 | Clear | SKC | 16 | 11 | 72% | 76.12 | 0.0 | |||||||
| 09 | 19:47 | NW 15 | 16.09 | Clear | SKC | 17 | 11 | 68% | 76.1 | 0.0 | |||||||
| 09 | 18:47 | NW 20 | 16.09 | Clear | SKC | 19 | 11 | 60% | 76.07 | 0.0 | |||||||
| 09 | 16:49 | NW 19 | 16.09 | Clear | SKC | 22 | 11 | 50% | 76.05 | 0.0 | |||||||
| 09 | 15:49 | NW 17 G 33 | 16.09 | Clear | SKC | 24 | 12 | 47% | 25 | 76.07 | 0.0 | ||||||
| 09 | 13:47 | N 17 | 16.09 | Clear | SKC | 24 | 9 | 39% | 25 | 76.12 | 0.0 | ||||||
| 09 | 12:47 | N 6 | 16.09 | Clear | SKC | 23 | 9 | 41% | 76.15 | 0.0 | |||||||
| 09 | 11:55 | NW 13 | 16.09 | Clear | SKC | 22 | 10 | 47% | 76.2 | 0.0 | |||||||
| 09 | 10:47 | NW 11 | 16.09 | Clear | SKC | 19 | 11 | 60% | 76.23 | 0.0 | |||||||
| 09 | 09:47 | Calm | 16.09 | Clear | SKC | 17 | 10 | 64% | 76.25 | 0.0 | |||||||
| 09 | 08:47 | Calm | 16.09 | A Few Clouds | FEW010 | 14 | 10 | 77% | 76.25 | 0.0 | |||||||
| 09 | 07:47 | Calm | 16.09 | A Few Clouds | FEW010 | 13 | 10 | 82% | 76.25 | 0.0 | |||||||
| 09 | 06:55 | Vrbl 6 | 16.09 | Clear | SKC | 11 | 8 | 82% | 76.23 | 0.0 | |||||||
| 08 | 21:47 | NW 7 | 16.09 | Clear | SKC | 13 | 10 | 82% | 76.33 | 0.0 | |||||||
| 08 | 19:47 | NW 15 | 16.09 | Clear | SKC | 17 | 11 | 68% | 76.25 | 0.0 | |||||||
| 08 | 18:47 | NW 13 | 16.09 | Clear | SKC | 19 | 11 | 60% | 76.23 | 0.0 | |||||||
| 08 | 17:47 | NW 15 | 16.09 | Clear | SKC | 20 | 11 | 56% | 76.23 | 0.0 | |||||||
| 08 | 16:47 | NW 17 | 16.09 | Clear | SKC | 21 | 12 | 57% | 76.25 | 0.0 | |||||||
| 08 | 15:47 | W 19 | 16.09 | Clear | SKC | 22 | 12 | 53% | 76.3 | 0.0 | |||||||
| 08 | 14:51 | NW 17 G 30 | 16.09 | Clear | SKC | 21 | 12 | 57% | 76.35 | 0.0 | |||||||
| 08 | 13:47 | NW 17 | 16.09 | Clear | SKC | 21 | 11 | 53% | 76.38 | 0.0 | |||||||
| 08 | 12:47 | N 17 | 16.09 | Clear | SKC | 20 | 11 | 56% | 76.4 | 0.0 | |||||||
| 08 | 11:47 | NW 17 | 16.09 | Clear | SKC | 18 | 9 | 56% | 76.45 | 0.0 | |||||||
| 08 | 10:47 | NW 13 | 16.09 | A Few Clouds | FEW100 | 17 | 9 | 60% | 76.48 | 0.0 | |||||||
| 08 | 08:47 | Calm | 16.09 | Mostly Cloudy | BKN020 | 13 | 9 | 77% | 76.5 | 0.0 | |||||||
| 08 | 07:50 | N 13 | 16.09 | Mostly Cloudy | BKN020 | 13 | 8 | 72% | 76.5 | 0.0 | |||||||
| 08 | 06:50 | N 9 | 16.09 | Mostly Cloudy | BKN025 | 12 | 8 | 77% | 76.48 | 0.0 | |||||||
| 07 | 21:47 | NW 11 | 16.09 | Clear | SKC | 13 | 11 | 88% | 76.4 | 0.0 | |||||||
| 07 | 20:47 | NW 17 | 16.09 | Clear | SKC | 14 | 11 | 82% | 76.35 | 0.0 | |||||||
| 07 | 19:47 | NW 17 | 16.09 | Clear | SKC | 16 | 11 | 72% | 76.3 | 0.0 | |||||||
| 07 | 18:47 | NW 19 | 16.09 | Clear | SKC | 19 | 12 | 64% | 76.28 | 0.0 | |||||||
| 07 | 17:47 | NW 22 | 16.09 | Clear | SKC | 21 | 12 | 57% | 76.28 | 0.0 | |||||||
| 07 | 16:47 | NW 13 | 16.09 | Clear | SKC | 23 | 11 | 47% | 76.25 | 0.0 | |||||||
| 07 | 15:47 | NW 13 | 16.09 | Clear | SKC | 23 | 11 | 47% | 76.28 | 0.0 | |||||||
| Date | Time (pdt) | Wind (kph) | Vis. (km) | Weather | Sky Cond. | Air | Dwpt | Max. | Min. | Relative Humidity | Wind Chill (°C) | Heat Index (°C) | altimeter (cm) | sea level (mb) | 1 hr | 3 hr | 6 hr |
| 6 hour | |||||||||||||||||
| Temperature (ºC) | Pressure | Precipitation (cm) | |||||||||||||||